Location: Pandora
(40.9481°N, 83.9611°W)
Time: 09:41:54
(UTC-04:00)

Envisat - Pass Details

Date: 17 September 2021
Orbit: 764 x 766 km, 98.2° (Epoch: 23 October)

Event Time Altitude Azimuth Distance (km) Brightness Sun altitude
Rises 06:36:06 0° 15° (NNE) 3,240 6.6 -8.8°
Reaches altitude 10° 06:38:26 10° 18° (NNE) 2,309 5.9 -8.4°
Maximum altitude 06:43:30 67° 101° (ESE) 827 3.5 -7.4°
Drops below altitude 10° 06:48:32 10° 185° (S) 2,292 5.3 -6.5°
Sets 06:50:50 0° 187° (S) 3,213 6.1 -6.1°
